Location: Umburanas
(4.5000°S, 37.9667°W)
Time: 21:40:38
(UTC+00:00)

Cosmos 2034 Rocket - Pass Details

Date: 19 November 2019
Orbit: 959 x 1000 km, 82.9° (Epoch: 12 December)

Event Time Altitude Azimuth Distance (km) Brightness Sun altitude
Rises 20:37:01 0° 7° (N) 3,704 6.8 -3.1°
Reaches altitude 10° 20:39:37 10° 12° (NNE) 2,757 6.1 -3.7°
Maximum altitude 20:45:45 54° 87° (E) 1,197 4.2 -5.2°
Drops below altitude 10° 20:51:54 10° 163° (SSE) 2,755 6.4 -6.6°
Sets 20:54:28 0° 167° (SSE) 3,701 7.1 -7.2°
